Location: Shandelee
(41.8790°N, 74.8713°W)
Time: 03:54:05
(UTC+00:00)

Cosmos 1825 - Pass Details

Date: 29 October 2020
Orbit: 502 x 508 km, 82.5° (Epoch: 23 November)

Event Time Altitude Azimuth Distance (km) Brightness Sun altitude
Rises 23:30:31 0° 356° (N) 2,620 5.8 -17.9°
Reaches altitude 10° 23:32:41 10° 0° (N) 1,729 4.8 -18.4°
Maximum altitude 23:36:25 57° 80° (E) 598 2.1 -19.0°
Enters shadow 23:36:53 52° 113° (ESE) 631 2.2 -19.1°
